Regional Weather Roundup
Issued by NWS

Home | Current Version | Previous Version | Graphics & Text | Print | Product List | Glossary On
Versions: 1 2 3 4 5 6 7 8 9 10 11 12 13 14 15 16 17 18 19 20 21 22 23 24 25 26 27 28 29 30 31 32 33 34 35 36 37 38 39 40 41 42 43 44 45 46 47 48 49 50
000
ASUS45 KSLC 191010
RWRUT

UTAH REGIONAL WEATHER ROUNDUP
NATIONAL WEATHER SERVICE SALT LAKE CITY UT
400 AM MDT FRI SEP 19 2014

UTZ001>011-023>025-191100-

NORTHERN UTAH

CITY           SKY/WX    TMP DP  RH WIND       PRES   REMARKS
HILL AFB       MOCLDY    66  50  55 E16       29.98S
LOGAN          PTCLDY    59  58  96 E3        30.00R
OGDEN          CLOUDY    69  51  52 NE7       29.96R
PROVO AIRPORT  MOCLDY    64  55  72 SE9       29.98R
SALT LAKE CITY MOCLDY    67  54  63 S5        29.96R THUNDER
VERNAL         PTCLDY    62  46  55 E7        30.00R
WENDOVER       CLEAR     63  52  67 CALM      29.98R
HEBER CITY     PTCLDY    59  46  63 SE8       30.05S
WEST JORDAN    MOCLDY    63  59  88 NW5       29.99R

$$

UTZ012>022-026-027-191100-

SOUTHERN UTAH

CITY           SKY/WX    TMP DP  RH WIND       PRES   REMARKS
BRYCE CANYON   MOCLDY    50  46  86 W6        30.18S
CEDAR CITY     MOCLDY    63  47  55 SE6       30.04R
MILFORD        PTCLDY    64  51  62 S8        29.98S
MOAB/CYNLANDS  CLEAR     63  36  36 CALM      29.91S
PRICE          PTCLDY    61  37  41 N8        30.02R
ST GEORGE      MOSUNNY   77  48  36 N3        29.87R
KANAB            N/A     61  48  63 NE3       30.04R

$$

REGIONAL REPORTS     COLORADO/ARIZONA

CITY           SKY/WX    TMP DP  RH WIND       PRES   REMARKS
CRAIG, CO      MOCLDY    44  39  82 W3        30.08R
GRAND JUNCTION CLEAR     58  42  55 E8        29.96R
RIFLE          PTCLDY    53  42  66 CALM      30.04R
MONTROSE       CLEAR     59  43  55 SE6       30.06R
CORTEZ         CLEAR     47  43  86 NE6       30.08R
PAGE, AZ       PTCLDY    75  52  44 CALM      29.93R
GRAND CANYON   PTCLDY    51  48  89 CALM      30.14S
KINGMAN        CLEAR     71  53  52 SE12      29.89S
FLAGSTAFF      CLOUDY    55  53  93 CALM      30.16S

$$

REGIONAL REPORTS    NEVADA/IDAHO/WYOMING

CITY           SKY/WX    TMP DP  RH WIND       PRES   REMARKS
LAS VEGAS, NV  CLEAR     79  45  29 S14       29.75R
ELY            MOCLDY    51  41  68 S5        30.09R
ELKO           CLEAR     55  51  86 N6        30.03S
POCATELLO, ID  CLEAR     54  53  97 W3        30.00R
BURLEY         CLEAR     53  43  68 W6        29.98R
EVANSTON, WY   LGT RAIN  53  48  83 E7        30.15F
ROCK SPRINGS   MOCLDY    57  45  64 NW13      30.13R

$$


USA.gov is the U.S. government's official web portal to all federal, state and local government web resources and services.